Regional Weather Roundup
Issued by NWS Lake Charles, LA

Home | Current Version | Previous Version | Text Only | Print | Product List | Glossary On
Versions: 1 2 3 4 5 6 7 8 9 10 11 12 13 14 15 16 17 18 19 20 21 22 23 24 25 26 27 28 29 30 31 32 33 34 35 36 37 38 39 40 41 42 43 44 45 46 47 48 49 50
000
ASUS44 KLCH 021210
RWRLCH
RWRLCH
REGIONAL WEATHER ROUNDUP
NATIONAL WEATHER SERVICE LAKE CHARLES LA
700 AM CDT WED SEP 02 2015

Note: "fair" indicates few or no clouds below 12,000 feet with no
significant weather and/or obstructions to visibility.


ACROSS SOUTHEAST TEXAS

CITY           SKY/WX    TMP DP  RH WIND       PRES   REMARKS
BEAUMONT       CLOUDY    75  74  96 N5        30.03R FOG
BEAUMONT CITY  CLOUDY    73  72  98 CALM      30.05R
ORANGE         CLOUDY   N/A N/A N/A CALM      30.05S
JASPER         CLOUDY    74  72  92 CALM      30.09S
$$

ACROSS CENTRAL LOUISIANA

CITY           SKY/WX    TMP DP  RH WIND       PRES   REMARKS
LEESVILLE      CLOUDY    73  71  94 N6        30.05S
FULLERTON      CLOUDY    72  71  97 CALM      30.05R
ALEXANDRIA INT CLOUDY    73  72  96 CALM      30.06R
ESLER FIELD    CLOUDY    75  71  87 CALM      30.07R FOG
DERIDDER       PTSUNNY   73  71  95 CALM      30.08R
OAKDALE          N/A     72  71  96 CALM      30.06R FOG
OPELOUSAS        N/A     72  72  98 CALM      30.06R
$$

ACROSS SOUTHWEST AND SOUTH CENTRAL LOUISIANA

CITY           SKY/WX    TMP DP  RH WIND       PRES   REMARKS
SULPHUR        CLOUDY    74  73  96 CALM      30.06R
LAKE CHARLES   CLOUDY    74  72  93 NE3       30.04R
CHENNAULT INT  NOT AVBL
CAMERON PHI    MOSUNNY   75  73  94 NE6       30.06S FOG
DEQUINCY       CLOUDY    71  71 100 CALM      30.05S
JENNINGS       CLOUDY    73  72  96 E3        30.05R
LAFAYETTE      CLOUDY    74  71  91 NE3       30.06R
NEW IBERIA     CLOUDY    76  73  91 CALM      30.06R
ABBEVILLE      CLOUDY    73  72  95 CALM      30.06R
PATTERSON      CLOUDY    75  73  94 NE3       30.06S
SALT POINT       N/A     77  74  90 CALM      30.03R
$$

SELECTED SITES ACROSS THE REGION

CITY           SKY/WX    TMP DP  RH WIND       PRES   REMARKS
HOUSTON BUSH   LGT RAIN  73  71  93 S3        30.05R
HOUSTON HOBBY  CLOUDY    73  71  93 S6        30.03S
GALVESTON      TSTM      75  73  93 NW8       30.03S FOG
COLLEGE STAT   CLEAR     71  68  90 E3        30.05R
CONROE         PTCLDY    72  70  93 CALM      30.06S
HUNTSVILLE     MOCLDY    71  70  96 CALM      30.06R
LUFKIN         CLOUDY    71  70  96 CALM      30.07R
SHREVEPORT     PTCLDY    73  69  87 CALM      30.08R
MONROE         CLOUDY    73  70  90 SW3       30.08R
NATCHEZ MS     CLOUDY    73  68  83 S3        30.08R
BATON ROUGE    CLOUDY    77  72  84 SW3       30.07R
N.O. INTL ARPT CLOUDY    81  73  76 N5        30.06R
SLIDELL        MOCLDY    73  72  96 CALM      30.06R
$$

MARINE REPORTS

STATION/POSITION TIME  TEMP    WIND        PRES    VSBY  WAVE
                       AIR SEA DIR/SP/G                  HT/PER
                 (UTC) (F)     (DEG/KT/KT) (MB)    (MI)  (FT/S)
BUOY 30 S HIGH I 1150   83 85  120/  8/ 10 1016.4R         4/ 6
SEA RIM ST PARK  1200   75      30/  5/  6 1017.6R
PORT ARTHUR      1100      84   20/  2/  4 1016.7F
SABINE PASS N    1100   76 83   30/  7/  8 1016.8R
TEXAS POINT      NOT AVBL
CALCASIEU PASS   1100   75 83   60/  5/  7 1016.0R
LK CHARLES BEACH 1100   75 85                N/A
MARSH ISLAND     NOT AVBL
FRESH WATER LOCK 1100   77 84   40/  5/  7 1016.7R
AMERADA PASS     1100   78 83   50/  1/  4 1017.1R
$$


USA.gov is the U.S. government's official web portal to all federal, state and local government web resources and services.